Regional Weather Roundup
Issued by NWS

Home | Current Version | Previous Version | Text Only | Print | Product List | Glossary Off
Versions: 1 2 3 4 5 6 7 8 9 10 11 12 13 14 15 16 17 18 19 20 21 22 23 24 25 26 27 28 29 30 31 32 33 34 35 36 37 38 39 40 41 42 43 44 45 46 47 48 49 50

000
ASUS43 KDTX 181301
RWRMI
MICHIGAN HOURLY REGIONAL WEATHER ROUNDUP
NATIONAL WEATHER SERVICE DETROIT/PONTIAC MI
900 AM EDT THU SEP 18 2014

NOTE: "FAIR" INDICATES FEW OR NO CLOUDS BELOW 12,000 FEET WITH NO
SIGNIFICANT WEATHER AND/OR OBSTRUCTION TO VISIBILITY.

MIZ047>049-052>055-059>063-066>070-074>076-081>083-181400-
SOUTHEAST LOWER MICHIGAN

CITY           SKY/WX    TMP DP  RH WIND       PRES   REMARKS
ADRIAN         SUNNY     52  49  89 N5        30.12R
ALMA           CLOUDY    50  49  95 NE3       30.13S
ANN ARBOR      SUNNY     55  49  80 NE6       30.11R
BAD AXE        CLOUDY    51  50  95 NE8       30.14R
CARO           CLOUDY    53  51  94 NE5       30.13R
DETROIT CITY   SUNNY     58  50  75 N8        30.11R
DETROIT        MOSUNNY   54  50  86 N6        30.11S
FLINT          MOSUNNY   54  49  83 CALM      30.13S
GROSSE ILE     SUNNY     55  52  88 N3        30.09R
HILLSDALE      SUNNY     52  50  93 NE7       30.12R
HOWELL         PTSUNNY   48  47  98 CALM      30.12R FOG

CITY           SKY/WX    TMP DP  RH WIND       PRES   REMARKS
JACKSON        SUNNY     51  49  92 VRB3      30.12R
LAMBERTVILLE   SUNNY     52  50  93 N3        30.11R
LANSING        SUNNY     49  46  90 N3        30.13R FOG
LAPEER         FOG       47  46  97 CALM      30.13R VSB 1/2
MASON          SUNNY     49  49  98 CALM      30.12R FOG
MONROE         SUNNY     54  50  87 N6        30.09R
MT. CLEMENS    MOSUNNY   55  49  82 N9        30.09R
PONTIAC        MOSUNNY   53  49  86 NE7       30.11R
PORT HOPE        N/A     52  47  83 NE21      30.13R
PORT HURON     PTSUNNY   54  52  94 NW3       30.11R
TRI CITIES       N/A     54  50  86 N8        30.14S
TROY           MOSUNNY   57  50  79 NE8       30.12S
SAGINAW HB     CLOUDY    54  54 100 N3        30.12S
$$
MIZ043>046-050>051-056>058-064>065-071>073-077>080-181400-
SOUTHWEST LOWER MICHIGAN

CITY           SKY/WX    TMP DP  RH WIND       PRES   REMARKS
BATTLE CREEK   SUNNY     51  47  86 CALM      30.12S
BENTON HARBOR  SUNNY     49  47  93 E3        30.12R
BIG RAPIDS     CLOUDY    50  50 100 CALM      30.14R
COLDWATER      SUNNY     51  50  97 NE5       30.12R
FREMONT        CLOUDY    51  49  92 NE6       30.12R
HOLLAND        SUNNY     53  47  79 E3        30.13R
GRAND RAPIDS   FOG       49  49 100 E6        30.13R VSB 1/4
IONIA          PTSUNNY   49  49  99 E5        30.12S
KALAMAZOO      SUNNY     50  47  89 CALM      30.12R
LUDINGTON      CLOUDY    49  47  92 N6        30.16R
MARSHALL       SUNNY     47  46  97 E3        30.11S
MOUNT PLEASANT CLOUDY    49  49  97 N6        30.14R
MUSKEGON       CLOUDY    52  48  86 VRB3      30.12R
SOUTH HAVEN    SUNNY     52  48  87 S3        30.12R
$$
MIZ016>042-181400-
NORTHERN LOWER MICHIGAN

CITY           SKY/WX    TMP DP  RH WIND       PRES   REMARKS
ALPENA         CLOUDY    46  36  68 NE9       30.20R
BEAVER ISLAND  CLOUDY    46  39  77 NE6       30.20R
BELLAIRE       CLOUDY    48  43  80 E6        30.17S
CADILLAC       CLOUDY    48  47  98 NE5       30.14R
CHARLEVOIX     CLOUDY    47  40  76 E12       30.20F
FRANKFORT      PTSUNNY   53  46  76 NE5       30.15S
GAYLORD        CLOUDY    43  41  93 NE7       30.17S
GRAYLING       CLOUDY    46  46  97 NE7       30.18R
HARBOR SPRINGS CLOUDY    46  38  74 NE7       30.19S
HOUGHTON LAKE  CLOUDY    46  45  96 NE8       30.17R FOG
MANISTEE       CLOUDY    52  45  76 NE6       30.16R
OSCODA         CLOUDY    46  45  95 N10       30.17R
PELLSTON       CLOUDY    45  39  79 NE9       30.20S
ROGERS CITY    CLOUDY    46  39  77 E6        30.21R
TRAVERSE CITY  PTSUNNY   50  44  80 E6        30.16R
$$
MIZ007>008-015-181400-
EASTERN UPPER MICHIGAN

CITY           SKY/WX    TMP DP  RH WIND       PRES   REMARKS
KINROSS        SUNNY     37  36  93 NE10      30.22R WCI  30
MACKINAC ISLAN CLOUDY    42  37  82 NE7       30.21R
NEWBERRY       SUNNY     37  34  89 NE5       30.21S WCI  33
S. S. MARIE    SUNNY     40  33  76 VRB3      30.23R
$$
MIZ004>006-011>014-085-181400-
CENTRAL UPPER MICHIGAN

CITY           SKY/WX    TMP DP  RH WIND       PRES   REMARKS
MANISTIQUE     CLOUDY    43  36  76 NE7       30.21R
ESCANABA       SUNNY     43  34  70 E9        30.21R
MENOMINEE      PTSUNNY   43  36  75 N8        30.18S
SAWYER-GWINN   CLOUDY    41  34  75 E6        30.19S
$$
MIZ001>003-009>011-084-181400-
WESTERN UPPER MICHIGAN

CITY           SKY/WX    TMP DP  RH WIND       PRES   REMARKS
IRON MOUNTAIN  PTSUNNY   42  33  70 N3        30.19R
HOUGHTON       CLOUDY    40  32  73 NE5       30.19R
COPPER HARBOR    N/A     39  35  86 CALM      30.21S
IRONWOOD       CLOUDY    39  37  93 E6        30.15S WCI  35
$$

ABBREVIATIONS USED IN REMARKS
   TC - TEMPERATURE IN CELSIUS
  WCI - WIND CHILL INDEX
   HX - HEAT INDEX
  VSB - VISIBILITY



USA.gov is the U.S. government's official web portal to all federal, state and local government web resources and services.